Change the Weather History Date:

Tuesday, January 14, 2014

  Actual Average Record
Temperature  
Mean Temperature 23 °F -  
Max Temperature 27 °F 24 °F 43 °F (1967)
Min Temperature 19 °F 7 °F -20 °F (1963)
Degree Days  
Heating Degree Days 42    
Moisture  
Dew Point 18 °F    
Average Humidity 78    
Maximum Humidity 92    
Minimum Humidity 65    
Precipitation  
Precipitation 0.00 in - - ()
Sea Level Pressure  
Sea Level Pressure 29.68 in    
Wind  
Wind Speed 9 mph (NNW)    
Max Wind Speed 21 mph    
Max Gust Speed 28 mph    
Visibility 6 miles    
Events Snow    
Averages and records for this station are not official NWS values.
T = Trace of Precipitation, MM = Missing Value Source: NWS Daily Summary

Daily Weather History Graph

Daily Weather History Graph

Search for Another Location

Airport or City:

Trip Planner

Search our weather history database for the weather conditions in past years. The results will help you decide how hot, cold, wet, or windy it might be!

Date:

Astronomy

Jan. 14, 2014 Rise Set
Actual Time 8:23 AM EST 5:24 PM EST
Civil Twilight 7:49 AM EST 5:58 PM EST
Nautical Twilight 7:12 AM EST 6:35 PM EST
Astronomical Twilight 6:36 AM EST 7:11 PM EST
Moon 4:31 PM EST (1/14) 6:55 AM EST (1/14)
Length of Visible Light 10h 08m
Length of Day
9h 01m
Waxing Gibbous, 98% of the Moon is Illuminated
Jan 14
Waxing Gibbous
Jan 15
Full
Jan 24
Last Quarter
Jan 30
New
Feb 6
First Quarter

Hourly Weather History & Observations

Time (EST) Temp. Windchill Dew Point Humidity Pressure Visibility Wind Dir Wind Speed Gust Speed Precip Events Conditions
12:14 AM 27.5 °F 16.3 °F 17.2 °F 65% 29.61 in 10.0 mi WNW 13.8 mph 18.4 mph N/A   Overcast
12:34 AM 27.5 °F 18.6 °F 17.1 °F 65% 29.61 in 10.0 mi West 9.2 mph - N/A   Overcast
12:55 AM 27.5 °F 21.1 °F 17.2 °F 65% 29.62 in 10.0 mi West 5.8 mph 9.2 mph N/A   Overcast
1:08 AM 27.5 °F 22.2 °F 17.2 °F 65% 29.61 in 10.0 mi WSW 4.6 mph - N/A   Overcast
1:35 AM 27.5 °F 22.2 °F 17.2 °F 65% 29.61 in 10.0 mi West 4.6 mph - N/A   Overcast
1:55 AM 27.5 °F 22.2 °F 17.2 °F 65% 29.61 in 10.0 mi West 4.6 mph - N/A   Overcast
2:14 AM 27.5 °F 22.2 °F 17.2 °F 65% 29.61 in 10.0 mi West 4.6 mph - N/A   Overcast
2:35 AM 27.5 °F 23.6 °F 17.6 °F 66% 29.62 in 10.0 mi West 3.5 mph - N/A   Overcast
2:53 AM 27.5 °F 22.2 °F 17.6 °F 66% 29.63 in 10.0 mi West 4.6 mph - N/A   Overcast
3:14 AM 27.3 °F 23.4 °F 18.0 °F 68% 29.64 in 10.0 mi West 3.5 mph - N/A   Overcast
3:35 AM 27.3 °F 20.9 °F 17.6 °F 67% 29.64 in 10.0 mi West 5.8 mph - N/A   Overcast
3:55 AM 27.3 °F 22.0 °F 17.4 °F 66% 29.64 in 10.0 mi West 4.6 mph - N/A   Overcast
4:14 AM 27.1 °F - 17.6 °F 67% 29.63 in 10.0 mi Calm Calm - N/A   Overcast
4:35 AM 27.0 °F - 17.6 °F 68% 29.63 in 10.0 mi Calm Calm - N/A   Overcast
4:55 AM 26.8 °F - 18.1 °F 70% 29.64 in 10.0 mi Calm Calm - N/A   Overcast
5:14 AM 26.6 °F - 17.8 °F 69% 29.64 in 10.0 mi Calm Calm - N/A   Overcast
5:35 AM 26.1 °F 20.5 °F 18.5 °F 73% 29.65 in 10.0 mi WNW 4.6 mph - N/A   Overcast
5:54 AM 26.4 °F 18.9 °F 18.1 °F 71% 29.65 in 10.0 mi WNW 6.9 mph - N/A   Overcast
6:14 AM 26.1 °F 18.4 °F 18.3 °F 73% 29.65 in 10.0 mi West 6.9 mph - N/A   Overcast
6:35 AM 26.2 °F 18.6 °F 18.1 °F 71% 29.65 in 10.0 mi WNW 6.9 mph - N/A   Overcast
6:54 AM 25.7 °F 18.0 °F 18.3 °F 74% 29.65 in 10.0 mi WNW 6.9 mph - N/A   Overcast
7:15 AM 25.9 °F 18.2 °F 17.8 °F 71% 29.66 in 10.0 mi West 6.9 mph - N/A   Overcast
7:35 AM 25.7 °F 18.0 °F 18.0 °F 73% 29.67 in 10.0 mi WNW 6.9 mph - N/A   Overcast
7:54 AM 25.7 °F 18.0 °F 17.6 °F 71% 29.67 in 10.0 mi WNW 6.9 mph - N/A   Overcast
8:15 AM 25.2 °F 19.5 °F 17.6 °F 73% 29.67 in 10.0 mi WNW 4.6 mph - N/A   Overcast
8:34 AM 25.2 °F 18.3 °F 17.4 °F 72% 29.67 in 10.0 mi West 5.8 mph - N/A   Overcast
8:54 AM 25.3 °F 18.5 °F 17.2 °F 71% 29.68 in 10.0 mi NW 5.8 mph - N/A   Overcast
9:15 AM 25.5 °F 17.8 °F 16.7 °F 69% 29.68 in 10.0 mi North 6.9 mph - N/A   Overcast
9:34 AM 26.1 °F 19.4 °F 16.3 °F 67% 29.68 in 10.0 mi North 5.8 mph - N/A   Overcast
9:55 AM 26.2 °F 17.8 °F 16.5 °F 67% 29.69 in 10.0 mi North 8.1 mph - N/A   Overcast
10:14 AM 26.4 °F 18.0 °F 16.5 °F 66% 29.69 in 10.0 mi North 8.1 mph - N/A   Overcast
10:34 AM 27.0 °F 18.7 °F 16.9 °F 66% 29.70 in 10.0 mi North 8.1 mph - N/A   Overcast
10:55 AM 27.3 °F 20.9 °F 18.0 °F 68% 29.70 in 10.0 mi NNE 5.8 mph - N/A   Overcast
11:14 AM 27.5 °F 19.3 °F 19.2 °F 71% 29.71 in 10.0 mi NNE 8.1 mph - N/A   Overcast
11:35 AM 27.5 °F 19.3 °F 19.2 °F 71% 29.71 in 10.0 mi NNE 8.1 mph - N/A   Overcast
11:55 AM 27.3 °F 20.9 °F 19.9 °F 74% 29.71 in 10.0 mi NNE 5.8 mph - N/A   Overcast
12:14 PM 27.0 °F 20.5 °F 20.3 °F 76% 29.70 in 7.0 mi NNE 5.8 mph - N/A Snow Light Snow
12:35 PM 27.0 °F 18.0 °F 20.3 °F 76% 29.69 in 4.0 mi NE 9.2 mph - N/A Snow Light Snow
12:55 PM 26.4 °F 18.0 °F 21.2 °F 81% 29.69 in 2.5 mi NNE 8.1 mph - N/A Snow Light Snow
1:14 PM 26.1 °F 19.4 °F 21.6 °F 83% 29.69 in 3.0 mi NE 5.8 mph - N/A Snow Light Snow
1:35 PM 25.7 °F 20.1 °F 22.1 °F 86% 29.69 in 1.8 mi NNE 4.6 mph - N/A Snow Light Snow
1:54 PM 25.5 °F 16.2 °F 22.1 °F 87% 29.69 in 1.0 mi NNE 9.2 mph - N/A Snow Light Snow
2:15 PM 25.2 °F 17.3 °F 23.0 °F 91% 29.68 in 1.0 mi NNE 6.9 mph - N/A Snow Light Snow
2:34 PM 24.8 °F 15.3 °F 22.8 °F 92% 29.68 in 0.8 mi NNE 9.2 mph - N/A Snow Light Snow
2:55 PM 24.8 °F 16.1 °F 22.6 °F 91% 29.69 in 0.5 mi NNE 8.1 mph - N/A Snow Light Snow
3:14 PM 24.8 °F 16.1 °F 22.8 °F 92% 29.68 in 0.5 mi North 8.1 mph - N/A Snow Snow
3:34 PM 24.6 °F 13.8 °F 22.6 °F 92% 29.68 in 0.5 mi North 11.5 mph 17.3 mph N/A Snow Snow
3:55 PM 24.3 °F 13.9 °F 21.9 °F 91% 29.69 in 0.5 mi North 10.4 mph 21.9 mph N/A Snow Snow
4:14 PM 23.7 °F 10.5 °F 21.2 °F 90% 29.69 in 0.8 mi North 16.1 mph 19.6 mph N/A Snow Light Snow
4:35 PM 23.0 °F 9.2 °F 20.8 °F 91% 29.70 in 0.5 mi North 17.3 mph 21.9 mph N/A Snow Light Snow
4:55 PM 22.6 °F 12.6 °F 20.3 °F 91% 29.71 in 0.8 mi North 9.2 mph - N/A Snow Light Snow
5:14 PM 21.7 °F 7.1 °F 19.0 °F 89% 29.71 in 0.8 mi North 18.4 mph 25.3 mph N/A Snow Light Snow
5:35 PM 21.4 °F 8.0 °F 18.5 °F 89% 29.72 in 1.0 mi North 15.0 mph 23.0 mph N/A Snow Light Snow
5:55 PM 21.0 °F 7.1 °F 18.1 °F 89% 29.73 in 1.2 mi North 16.1 mph - N/A Snow Light Snow
6:14 PM 20.8 °F 6.4 °F 18.3 °F 90% 29.73 in 1.5 mi North 17.3 mph 20.7 mph N/A Snow Light Snow
6:35 PM 20.7 °F 6.6 °F 18.0 °F 89% 29.73 in 2.0 mi North 16.1 mph - N/A Snow Light Snow
6:54 PM 20.3 °F 4.4 °F 17.6 °F 89% 29.73 in 2.5 mi North 20.7 mph 25.3 mph N/A Snow Light Snow
7:15 PM 20.1 °F 5.4 °F 16.9 °F 87% 29.73 in 2.5 mi North 17.3 mph 24.2 mph N/A Snow Light Snow
7:35 PM 19.9 °F 6.2 °F 16.7 °F 87% 29.73 in 2.0 mi North 15.0 mph 24.2 mph N/A Snow Light Snow
7:54 PM 19.8 °F 5.4 °F 16.5 °F 87% 29.74 in 2.0 mi North 16.1 mph 23.0 mph N/A Snow Light Snow
8:15 PM 19.4 °F 6.0 °F 15.8 °F 86% 29.74 in 4.0 mi North 13.8 mph 21.9 mph N/A Snow Light Snow
8:35 PM 19.4 °F 6.0 °F 15.8 °F 86% 29.74 in 4.0 mi North 13.8 mph - N/A Snow Light Snow
8:54 PM 19.4 °F 5.0 °F 15.8 °F 86% 29.74 in 3.0 mi North 16.1 mph 23.0 mph N/A Snow Light Snow
9:15 PM 19.4 °F 6.0 °F 16.0 °F 87% 29.74 in 4.0 mi North 13.8 mph 19.6 mph N/A Snow Light Snow
9:34 PM 19.4 °F 5.0 °F 15.8 °F 86% 29.74 in 4.0 mi North 16.1 mph 24.2 mph N/A Snow Light Snow
9:54 PM 19.4 °F 5.0 °F 15.8 °F 86% 29.74 in 3.0 mi North 16.1 mph 26.5 mph N/A Snow Light Snow
10:15 PM 19.4 °F 5.0 °F 15.1 °F 83% 29.74 in 5.0 mi North 16.1 mph 24.2 mph N/A Snow Light Snow
10:34 PM 19.4 °F 4.1 °F 14.2 °F 80% 29.74 in 5.0 mi North 18.4 mph 23.0 mph N/A   Haze
10:55 PM 19.4 °F 4.5 °F 14.0 °F 80% 29.74 in 4.0 mi North 17.3 mph 25.3 mph N/A Snow Light Snow
11:15 PM 19.2 °F 4.7 °F 14.5 °F 82% 29.74 in 3.0 mi North 16.1 mph 21.9 mph N/A Snow Light Snow
11:34 PM 19.0 °F 3.2 °F 14.9 °F 84% 29.74 in 3.0 mi North 19.6 mph 27.6 mph N/A Snow Light Snow
11:55 PM 19.0 °F 4.0 °F 14.9 °F 84% 29.74 in 2.5 mi North 17.3 mph 24.2 mph N/A Snow Light Snow